Weather History for Harlingen, TX

Change the Weather History Date:

Sunday, January 19, 2014

  Actual Average Record
Temperature  
Mean Temperature 63 °F 60 °F  
Max Temperature 77 °F 71 °F 89 °F (1922)
Min Temperature 49 °F 50 °F 28 °F (1906)
Degree Days  
Heating Degree Days 2 6  
Month to date heating degree days 136 130  
Since 1 July heating degree days 510 378  
Cooling Degree Days 0 1  
Month to date cooling degree days 14 37  
Year to date cooling degree days 14 37  
Growing Degree Days 12 (Base 50)    
Moisture  
Dew Point 52 °F    
Average Humidity 70    
Maximum Humidity 100    
Minimum Humidity 40    
Precipitation  
Precipitation 0.00 in 0.04 in 1.08 in (1968)
Month to date precipitation 0.19 0.52  
Year to date precipitation 0.19 0.52  
Sea Level Pressure  
Sea Level Pressure 30.20 in    
Wind  
Wind Speed 5 mph (ENE)    
Max Wind Speed 14 mph    
Max Gust Speed 18 mph    
Visibility 3 miles    
Events Fog    
T = Trace of Precipitation, MM = Missing Value Source: NWS Daily Summary

Daily Weather History Graph

Daily Weather History Graph

Search for Another Location

Airport:

Trip Planner

Search our weather history database for the weather conditions in past years. The results will help you decide how hot, cold, wet, or windy it might be!

Date:

Astronomy

Jan. 19, 2014 Rise Set
Actual Time 7:19 AM CST 6:03 PM CST
Civil Twilight 6:54 AM CST 6:28 PM CST
Nautical Twilight 6:26 AM CST 6:56 PM CST
Astronomical Twilight 5:58 AM CST 7:24 PM CST
Moon 9:18 PM CST (1/19) 9:12 AM CST (1/19)
Length of Visible Light 11h 33m
Length of Day
10h 44m
Waning Gibbous, 89% of the Moon is Illuminated
Jan 19
Waning Gibbous
Jan 23
Last Quarter
Jan 30
New
Feb 6
First Quarter
Feb 14
Full

Hourly Weather History & Observations

Time (CST) Temp. Dew Point Humidity Pressure Visibility Wind Dir Wind Speed Gust Speed Precip Events Conditions
12:09 AM 53.6 °F 53.6 °F 100% 30.15 in 0.2 mi Calm Calm - N/A Fog Fog
12:17 AM 53.6 °F 53.6 °F 100% 30.15 in 0.5 mi Calm Calm - N/A Fog Fog
12:22 AM 53.6 °F 53.6 °F 100% 30.15 in 0.2 mi Calm Calm - N/A Fog Fog
12:52 AM 53.1 °F 52.0 °F 96% 30.15 in 0.2 mi Calm Calm - N/A Fog Fog
1:32 AM 53.6 °F 51.8 °F 94% 30.16 in 0.5 mi NE 3.5 mph - N/A Fog Fog
1:39 AM 51.8 °F 51.8 °F 100% 30.16 in 0.2 mi Calm Calm - N/A Fog Fog
1:52 AM 51.1 °F 51.1 °F 100% 30.17 in 0.2 mi Calm Calm - N/A Fog Fog
2:03 AM 51.8 °F 51.8 °F 100% 30.17 in 0.5 mi Calm Calm - N/A Fog Fog
2:09 AM 51.8 °F 50.0 °F 94% 30.17 in 0.2 mi Calm Calm - N/A Fog Fog
2:44 AM 51.8 °F 50.0 °F 94% 30.18 in 0.2 mi Calm Calm - N/A Fog Fog
2:52 AM 51.1 °F 50.0 °F 96% 30.18 in 0.2 mi Calm Calm - N/A Fog Fog
3:05 AM 51.8 °F 50.0 °F 94% 30.18 in 0.2 mi Calm Calm - N/A Fog Fog
3:14 AM 51.8 °F 50.0 °F 94% 30.18 in 0.5 mi Calm Calm - N/A Fog Fog
3:32 AM 50.0 °F 48.2 °F 94% 30.18 in 0.2 mi Calm Calm - N/A Fog Fog
3:41 AM 50.0 °F 50.0 °F 100% 30.18 in 0.2 mi North 3.5 mph - N/A Fog Fog
3:52 AM 50.0 °F 50.0 °F 100% 30.18 in 0.2 mi Calm Calm - N/A Fog Fog
4:07 AM 51.8 °F 50.0 °F 94% 30.19 in 0.5 mi Calm Calm - N/A Fog Fog
4:50 AM 51.8 °F 50.0 °F 94% 30.19 in 0.5 mi Calm Calm - N/A Fog Fog
4:52 AM 52.0 °F 51.1 °F 97% 30.19 in 0.5 mi Calm Calm - N/A Fog Fog
5:08 AM 50.0 °F 50.0 °F 100% 30.18 in 0.2 mi Calm Calm - N/A Fog Fog
5:15 AM 50.0 °F 48.2 °F 94% 30.18 in 0.5 mi Calm Calm - N/A Fog Fog
5:25 AM 48.2 °F 48.2 °F 100% 30.19 in 0.5 mi Calm Calm - N/A Fog Fog
5:33 AM 50.0 °F 48.2 °F 94% 30.19 in 0.2 mi Calm Calm - N/A Fog Fog
5:43 AM 48.2 °F 48.2 °F 100% 30.19 in 0.5 mi Calm Calm - N/A Fog Fog
5:52 AM 50.0 °F 48.9 °F 96% 30.19 in 0.5 mi Calm Calm - N/A Fog Fog
6:13 AM 50.0 °F 48.2 °F 94% 30.20 in 0.2 mi Calm Calm - N/A Fog Fog
6:27 AM 48.2 °F 48.2 °F 100% 30.21 in 0.5 mi Calm Calm - N/A Fog Fog
6:42 AM 48.2 °F 48.2 °F 100% 30.21 in 0.2 mi Calm Calm - 0.01 in Fog Fog
6:52 AM 48.9 °F 48.9 °F 100% 30.22 in 0.2 mi Calm Calm - 0.01 in Fog Fog
7:09 AM 50.0 °F 48.2 °F 94% 30.22 in 0.5 mi Calm Calm - N/A Fog Fog
7:29 AM 48.2 °F 48.2 °F 100% 30.23 in 0.2 mi NW 3.5 mph - N/A Fog Fog
7:52 AM 52.0 °F 51.1 °F 97% 30.24 in 0.2 mi NNW 4.6 mph - N/A Fog Fog
8:07 AM 51.8 °F 51.8 °F 100% 30.25 in 0.2 mi North 5.8 mph - N/A Fog Fog
8:52 AM 55.0 °F 55.0 °F 100% 30.27 in 0.2 mi North 4.6 mph - N/A Fog Fog
9:36 AM 57.2 °F 57.2 °F 100% 30.28 in 0.8 mi Calm Calm - N/A   Overcast
9:46 AM 60.8 °F 59.0 °F 94% 30.29 in 2.5 mi Calm Calm - N/A   Mostly Cloudy
9:47 AM 60.8 °F 59.0 °F 94% 30.29 in 3.0 mi Calm Calm - N/A   Mostly Cloudy
9:52 AM 61.0 °F 59.0 °F 93% 30.29 in 8.0 mi North 3.5 mph - N/A   Clear
10:52 AM 69.1 °F 57.9 °F 68% 30.28 in 10.0 mi NE 4.6 mph - N/A   Clear
11:52 AM 73.0 °F 57.0 °F 57% 30.26 in 10.0 mi Variable 3.5 mph - N/A   Clear
12:52 PM 75.9 °F 55.0 °F 48% 30.22 in 10.0 mi ENE 8.1 mph - N/A   Clear
1:52 PM 77.0 °F 51.1 °F 40% 30.20 in 10.0 mi NE 8.1 mph - N/A   Clear
2:52 PM 75.9 °F 51.1 °F 42% 30.18 in 10.0 mi East 10.4 mph - N/A   Clear
3:52 PM 75.0 °F 53.1 °F 46% 30.17 in 10.0 mi ENE 9.2 mph - N/A   Clear
4:52 PM 72.0 °F 54.0 °F 53% 30.17 in 10.0 mi East 11.5 mph - N/A   Clear
5:52 PM 66.0 °F 57.0 °F 73% 30.18 in 10.0 mi East 9.2 mph - N/A   Clear
6:52 PM 62.1 °F 57.9 °F 86% 30.18 in 10.0 mi East 8.1 mph - N/A   Clear
7:52 PM 60.1 °F 57.9 °F 93% 30.18 in 10.0 mi East 4.6 mph - N/A   Clear
8:52 PM 60.1 °F 57.9 °F 93% 30.18 in 10.0 mi ESE 5.8 mph - N/A   Clear
9:52 PM 59.0 °F 57.0 °F 93% 30.18 in 10.0 mi SSE 5.8 mph - N/A   Clear
10:52 PM 57.0 °F 55.9 °F 96% 30.17 in 7.0 mi South 5.8 mph - N/A   Clear
11:52 PM 55.9 °F 55.0 °F 97% 30.15 in 3.0 mi SSE 6.9 mph - N/A   Clear